OneWeb SL0179

operational
NORAD ID: 48212 Int'l Des: 2021-031 Owner: ONEWEBN Country: UK Constellation: oneweb
LEOCIRCULARPOLARONEWEB_TYPE

OneWeb SL0179について

説明を読み込み中...

リアルタイム位置

3D地球を読み込み中...

次回通過

高度履歴

Altitude vs Time

uPlot chart will show altitude changes over time

軌道要素

1 48212U 21031C 25306.13946174 .00000188 00000-0 47291-3 0 9998
2 48212 87.9006 334.9212 0001859 91.5683 268.5660 13.14503430218501
Epoch: Nov 2, 2025 • Age: 35 hours

現在のステータス

高度 1217.2 km
速度 7.25 km/s
衛星直下点 74.09°N, 82.4°E
打ち上げ日 Apr 25, 2021
運用期間 4.5 years
タイプ internet

技術仕様

分類 Payload
質量 148.00 kg
乾燥質量 140.00 kg
総質量 148.00 kg
長さ 1.30 m
直径 1.00 m
スパン 5.00 m
形状 Trapezoid+2 pan
製造者 ONEWUS
バスタイプ ARROW
フェーズステータス In Orbit
所有者/国 ONEWEBN/UK

大規模コンステレーション

Loading constellations...